Location: Home
(42.5358°N, 72.7383°W)
Time: 22:14:19
(UTC-05:00)

Vanguard 2 Rocket - Pass Details

Date: 06 December 2021
Orbit: 554 x 3325 km, 32.9° (Epoch: 21 January)

Event Time Altitude Azimuth Distance (km) Brightness Sun altitude
Rises 00:39:31 0° 264° (W) 5,527 - -66.7°
Reaches altitude 10° 00:45:36 10° 242° (WSW) 5,094 - -66.0°
Maximum altitude 00:52:15 14° 216° (SW) 5,240 - -65.2°
Drops below altitude 10° 00:59:58 10° 190° (S) 6,013 - -64.2°
Sets 01:08:53 0° 171° (S) 7,278 - -63.0°
